User: anonymous   Login
Location: Arcueil
(48.7999°N, 2.3326°E)
Time: 04:52:40
(UTC+00:00)
Language:

Cosmos 2315 Rocket - Orbit

View from above orbital plane
View from above orbital plane
View from above satellite
View from above satellite

Ground track
Ground track

The orbit data is extracted from the following two-line orbital elements,

1 23604U 95032B   24109.50014342  .00000304  00000-0  30513-3 0  9991
2 23604  82.8998  98.7042 0025320 124.4760 235.8793 13.74416060443805
Epoch (UTC): 18 April 2024 12:00:12
Eccentricity: 0.0025320
inclination: 82.8998°
perigee height: 965 km
apogee height: 1002 km
right ascension of ascending node: 98.7042°
argument of perigee: 124.4760°
revolutions per day: 13.74416060
mean anomaly at epoch: 235.8793°
orbit number at epoch: 44380

The dashed part of the orbit path shows where the satellite is in the earth's shadow,  

DLR